Flag for United Arab Emirates Weather past 2 weeks in Dubai, Dubai, United Arab Emirates

Now
93 °F

Passing clouds.


Feels Like: 117 °F
Forecast: 88 / 100 °F
Wind: 6 mph from Northeast

Location: Dubai International Airport

Current Time: Sep 22, 2014 at 9:22:30 PM

Latest Report: Sep 22, 2014 at 9:00 PM


Visibility: N/A

Pressure: 29.68 "Hg

Humidity: 71%

Dew point: 82 °F

Location of DubaiLocation

Historic Weather in Dubai — Graph

°F

Dubai temperature yesterday

Maximum temperature yesterday: 100 °F (at 2:00 PM)
Minimum temperature yesterday: 86 °F (at 6:00 AM)
Average temperature yesterday: 92 °F

Past Weeks' High & Low Weather Summary

 TemperatureHumidityPressure
High109 °F (Sep 8, 1:00 PM)89% (Sep 11, 6:00 AM)29.80 "Hg (Sep 11, 6:00 AM)
Low84 °F (Sep 20, 6:00 AM)18% (Sep 16, 2:00 PM)29.56 "Hg (Sep 7, 8:00 PM)
Average94 °F61%29.64 "Hg
* Reported Sep 7 8:00 PM — Sep 22 8:00 PM, Dubai, Weather by CustomWeather, © 2014

Note: Actual official high and low records may vary slightly from our data, if they occured in-between our weather recording intervals... More about our weather records

Advertising

Dubai weather history for previous 24 hours

 ConditionsComfort  
Time TempWeatherWind HumidityBarometerVisibility
8:00 PM
Sep 22
93 °FPassing clouds.6 mph67%29.68 "HgN/A
7:00 PM93 °FPassing clouds.7 mph67%29.65 "HgN/A
6:00 PM95 °FPassing clouds.10 mph63%29.65 "HgN/A
5:00 PM95 °FSunny.13 mph53%29.62 "Hg10 mi
4:00 PM99 °FSunny.14 mph37%29.62 "Hg10 mi
3:00 PM100 °FPassing clouds.14 mph42%29.62 "HgN/A
2:00 PM99 °FPassing clouds.13 mph44%29.65 "HgN/A
1:00 PM99 °FSunny.5 mph44%29.68 "Hg10 mi
12:00 PM100 °FSunny.5 mph31%29.71 "Hg10 mi
11:00 AM97 °FPassing clouds.5 mph42%29.71 "HgN/A
10:00 AM93 °FPassing clouds.7 mph53%29.74 "HgN/A
9:00 AM91 °FSunny.9 mph59%29.74 "Hg10 mi
8:00 AM88 °FPassing clouds.9 mph84%29.71 "HgN/A
7:00 AM86 °FClear.7 mph89%29.68 "Hg4 mi
6:00 AM88 °FClear.7 mph84%29.65 "Hg5 mi
5:00 AM88 °FClear.6 mph84%29.65 "Hg5 mi
4:00 AM88 °FPassing clouds.5 mph84%29.65 "HgN/A
3:00 AM90 °FPassing clouds.7 mph79%29.62 "HgN/A
2:00 AM90 °FPassing clouds.5 mph84%29.65 "HgN/A
1:00 AM90 °FClear.6 mph84%29.65 "Hg10 mi
12:00 AM90 °FPassing clouds.3 mph84%29.65 "HgN/A
11:00 PM
Sep 21
90 °FPassing clouds.5 mph84%29.68 "HgN/A
10:00 PM91 °FPassing clouds.6 mph80%29.68 "HgN/A
9:00 PM91 °FPassing clouds.5 mph80%29.65 "HgN/A
Weather by CustomWeather, © 2014

See weather overviewHow to use our weather pages